Probability
0 0 0 0 0 0 0 0 0 0 0 0 0 0 0 0 0 0 0 0 0 0 0 0 0 0 0 0 0 0 0 0 0 0 0 0 0 0 0 0 0 0 0
0 0 0 0 0 0 0 0 0 0 0 0 0 0 0 0 0 0 0 0 0 0 0 0 0 0 0 0 0 0 0 0 0 0 0 0 0 0 0 0 0 0 0
0 0 0 0 0 0 0 0 0 0 0 0 0 0 0 0 0 0 0 0 0 0 0 0 0 0 0 0 0 0 0 0 0 0 0 0 0 0 0 0 0 0 0
0 0 0 0 0 0 0 0 0 0 0 0 0 0 0 0 0 0 0 0 0 0 0 0 0 0 0 0 0 0 0 0 0 0 0 0 0 0 0 0 0 0 0
0 0 0 0 0 0 0 0 0 0 0 0 0 0 0 0 0 0 0 0 0 0 0 0 0 0 0 0 0 0 0 0 0 0 0 0 0 0 0 0 0 0 0
0 0 0 0 0 0 0 0 0 0 0 0 0 0 0 0 0 0 0 0 0 0 0 0 0 0 0 0 0 0 0 0 0 0 0 0 0 0 0 0 0 0 0
0 0 0 0 0 0 0 0 0 0 0 0 0 0 0 0 0 0 0 0 0 0 0 0 0 0 0 0 0 0 0 0 0 0 0 0 0 0 0 0 0 0 0
0 0 0 0 0 0 0 0 0 0 0 0 0 0 0 0 0 0 0 0 0 0 0 0 0 0 0 0 0 0 0 0 0 0 0 0 0 0 0 0 0 0 0
0 0 0 0 0 0 0 0 0 0 0 0 0 0 0 0 0 0 0 0 0 0 0 0 0 0 0 0 0 0 0 0 0 0 0 0 0 0 0 0 0 0 0
0 0 0 0 0 0 0 0 0 0 0 0 0 0 0 0 0 0 0 0 0 0 0 0 0 0 0 0 0 0 0 0 0 0 0 0 0 0 0 0 0 0 0
0 0 0 0 0 0 0 0 0 0 0 0 0 0 0 0 0 0 0 0 0 0 0 0 0 0 0 0 0 0 0 0 0 0 0 0 0 0 0 0 0 0 0
0 0 0 0 0 0 0 0 0 0 0 0 0 0 0 0 0 0 0 0 0 0 0 0 0 0 0 0 0 0 0 0 0 0 0 0 0 0 0 0 0 0 0
0 0 0 0 0 0 0 0 0 0 0 0 0 0 0 0 0 0 0 0 0 0 0 0 0 0 0 0 0 0 0 0 0 0 0 0 0 0 0 0 0 0 0
0 0 0 0 0 0 0 0 0 0 0 0 0 0 0 0 0 0 0 0 0 0 0 0 0 0 0 0 0 0 0 0 0 0 0 0 0 0 0 0 0 0 0
0 0 0 0 0 0 0 0 0 0 0 0 0 0 0 0 0 0 0 0 0 0 0 0 0 0 0 0 0 0 0 0 0 0 0 0 0 0 0 0 0 0 0
0 0 0 0 0 0 0 0 0 0 0 0 0 0 0 0 0 0 0 0 0 0 0 0 0 0 0 0 0 0 0 0 0 0 0 0 0 0 0 0 0 0 0
0 0 0 0 0 0 0 0 0 0 0 0 0 0 0 0 0 0 0 0 0 0 0 0 0 0 0 0 0 0 0 0 0 0 0 0 0 0 0 0 0 0 0
0 0 0 0 0 0 0 0 0 0 0 0 0 0 0 0 0 0 0 0 0 0 0 0 0 0 0 0 0 0 0 0 0 0 0 0 0 0 0 0 0 0 0
0 0 0 0 0 0 0 0 0 0 0 0 0 0 0 0 0 0 0 0 0 0 0 0 0 0 0 0 0 0 0 0 0 0 0 0 0 0 0 0 0 0 0
0 0 0 0 0 0 0 0 1 1 1 1 1 0 0 0 0 0 0 0 0 0 0 0 0 0 0 0 0 0 0 0 0 0 0 0 0 0 0 0 0 0 0
0 0 0 0 0 0 0 0 1 2 2 2 2 1 0 0 0 0 0 0 0 0 0 0 0 0 0 0 0 0 0 0 0 0 0 0 0 0 0 0 0 0 0
1 1 1 0 0 0 0 0 1 1 1 1 1 1 0 0 0 0 0 0 0 0 0 0 0 0 0 0 0 0 0 0 0 0 0 0 0 0 0 0 0 0 0
2 2 2 1 0 0 0 0 0 0 0 0 1 0 0 0 0 0 0 0 0 0 0 0 0 0 0 0 0 0 0 0 0 0 0 0 0 0 0 0 0 0 0
1 2 3 3 1 0 0 0 0 0 0 0 1 0 0 0 0 0 0 0 0 0 0 0 0 0 0 0 0 0 0 0 0 0 0 0 0 0 0 0 0 0 0
0 1 3 4 2 0 0 0 0 0 0 0 0 0 0 0 0 0 0 0 0 0 0 0 0 0 0 0 0 0 0 0 0 0 0 0 0 0 0 0 0 0 0
0 1 3 4 2 0 0 0 0 0 0 0 0 0 0 0 0 0 0 0 0 0 0 0 0 0 0 0 0 0 0 0 0 0 0 0 0 0 0 0 0 0 0
Wind_Speed
11 14 15 15 15 15 14 14 13 13 13 13 12 12 12 12 12 12 12 12 12 12 12 12 12 12 12 12 12 12 12 12 12 12 11 11 11 11 11 9 7 9 10
14 15 15 14 15 15 14 14 13 13 13 13 12 12 12 12 12 11 11 11 12 12 11 11 11 11 11 11 11 11 11 10 10 10 8 8 9 9 9 9 9 8 9
15 16 16 13 15 15 14 14 13 13 13 12 12 12 12 11 11 11 11 11 11 11 11 10 10 10 10 10 10 9 9 9 8 6 2 5 7 8 7 7 8 8 8
15 15 15 14 14 15 14 13 13 13 13 12 12 12 11 11 11 11 11 10 10 10 10 10 9 9 8 8 8 8 8 8 7 2 3 5 5 7 6 6 6 6 6
14 14 14 13 14 15 14 13 12 13 12 12 12 12 11 10 10 10 10 9 9 9 9 9 8 8 7 7 7 7 6 6 4 1 4 4 4 6 5 5 4 4 4
14 13 14 13 14 15 14 13 12 12 12 12 11 11 10 10 10 9 9 8 8 8 8 7 7 6 6 5 5 5 5 4 1 3 3 3 3 4 4 4 3 3 2
14 13 15 13 13 13 14 13 12 12 12 11 11 11 10 10 9 9 8 7 7 7 7 6 6 5 5 4 4 4 4 2 2 2 2 2 3 4 4 3 3 3 3
13 12 13 12 11 11 12 11 11 10 10 10 10 11 10 10 9 8 7 7 7 6 6 5 5 4 3 3 3 3 2 2 2 1 2 2 3 4 4 4 4 4 4
12 12 12 13 12 11 10 10 9 9 9 9 9 9 8 8 8 7 6 6 6 6 5 5 4 3 2 2 1 1 1 1 4 2 3 2 3 6 6 6 5 5 5
11 11 12 12 12 12 12 10 9 8 8 8 8 8 8 7 7 6 6 5 5 5 4 4 3 3 2 2 1 0 1 4 4 3 3 2 4 7 7 7 7 7 7
10 11 11 12 11 11 11 10 10 9 8 8 8 8 8 7 8 7 6 4 4 4 3 3 3 3 3 3 2 2 4 3 4 3 3 2 6 8 8 8 8 8 8
14 13 11 12 12 11 8 9 8 8 9 9 8 9 8 6 5 5 5 5 4 4 4 4 3 4 5 3 3 4 3 4 4 3 2 3 8 9 9 9 9 9 9
14 13 12 12 11 11 8 7 6 6 6 8 9 9 7 6 5 5 4 5 6 6 5 5 5 4 4 3 3 3 4 4 3 3 3 4 8 9 9 9 9 9 9
13 14 13 12 11 11 9 8 7 6 6 6 8 9 7 5 5 5 4 4 4 4 4 4 3 4 4 5 5 5 5 4 4 3 3 4 7 9 9 9 9 9 9
14 14 14 13 12 11 10 7 7 7 7 8 7 8 9 7 6 6 5 4 5 4 5 5 5 5 5 5 5 5 6 6 6 5 3 4 7 8 9 9 9 9 9
14 14 13 14 13 12 10 9 8 8 7 7 7 9 10 8 7 6 6 6 6 5 5 5 5 5 4 4 5 6 6 6 6 6 5 4 5 6 8 8 8 8 8
13 13 14 13 13 13 12 11 8 8 8 8 7 9 10 9 8 7 6 6 6 6 6 5 6 5 4 4 5 6 5 6 6 6 6 5 4 3 5 6 6 7 7
12 13 13 11 13 14 12 11 8 8 9 8 8 8 11 11 10 8 7 7 7 6 5 5 5 5 5 4 4 4 5 5 6 6 5 5 4 3 2 3 4 5 6
12 12 13 14 14 14 13 10 9 8 9 8 8 8 9 11 11 9 7 7 7 6 6 5 5 5 5 5 4 5 5 5 5 5 5 5 4 4 3 1 2 3 5
11 11 12 13 14 12 10 9 8 9 8 8 8 9 10 10 11 10 8 8 7 6 6 6 7 6 5 4 4 5 5 5 5 4 4 4 3 3 3 3 2 1 2
10 11 12 13 13 11 9 9 9 9 8 8 8 9 10 10 10 10 8 8 7 7 8 8 6 6 5 4 4 4 5 5 4 3 3 2 2 2 2 2 2 2 1
10 10 11 12 12 13 11 9 7 7 7 8 7 9 11 11 11 9 10 8 8 7 8 8 7 5 4 4 4 4 4 3 3 2 2 1 1 1 1 1 1 2 2
8 9 8 11 11 12 12 9 6 6 5 7 9 8 10 11 11 10 10 9 8 8 7 8 8 8 6 6 6 5 4 3 2 2 2 1 1 1 1 0 1 1 1
7 6 7 8 9 10 11 11 12 10 10 10 8 7 8 10 10 10 10 10 9 7 8 8 8 7 8 6 5 6 6 4 4 3 2 2 1 1 1 1 1 1 1
5 5 5 6 7 8 10 12 12 11 9 7 7 8 8 8 9 9 9 9 8 7 8 8 7 8 7 7 5 4 6 6 7 6 5 3 2 1 2 2 2 1 1
4 3 3 4 5 6 8 9 11 12 11 9 9 8 7 6 6 8 8 8 8 7 8 8 7 8 7 8 6 5 5 5 5 6 6 5 4 2 2 2 2 2 2
Wind_Direction
161 156 152 157 153 150 147 142 138 137 135 132 128 125 125 123 119 113 110 107 104 101 98 94 91 90 86 82 78 75 73 70 67 65 65 67 71 75 71 60 54 68 63
152 155 151 157 155 152 148 146 142 141 140 138 135 131 127 124 121 117 113 110 107 105 102 98 95 91 88 83 79 76 74 72 67 62 60 76 71 71 71 61 50 58 57
150 153 155 156 155 153 149 149 147 146 144 143 140 137 133 129 126 123 117 114 112 109 105 102 98 95 90 86 82 79 77 74 67 56 43 72 73 62 64 63 59 57 52
152 155 159 152 155 154 152 152 153 152 151 147 145 142 138 135 129 126 122 119 117 113 109 106 103 99 94 89 84 80 78 75 65 16 58 57 60 53 50 55 55 51 45
153 157 151 153 155 156 157 158 158 156 154 151 147 144 140 137 133 130 129 126 122 117 114 110 106 102 97 93 87 81 77 76 66 15 57 53 55 45 36 42 43 41 34
156 158 152 157 157 160 160 160 159 158 158 156 153 150 148 143 139 137 135 132 129 125 121 117 113 108 103 97 90 82 74 72 256 54 47 39 43 34 15 20 18 10 359
157 160 158 160 160 162 164 165 164 163 163 162 160 156 153 150 147 146 143 142 138 134 130 124 121 118 113 101 87 78 71 37 325 22 14 11 27 359 341 340 332 328 319
160 162 162 159 162 164 167 166 167 168 167 166 165 162 159 157 157 155 153 153 152 145 141 138 131 127 122 111 92 81 75 316 293 324 324 336 15 322 313 312 310 307 304
164 166 168 171 170 168 168 169 170 171 171 170 168 164 162 161 158 158 159 163 165 162 156 151 150 147 146 138 115 97 90 296 286 309 306 314 348 306 302 298 293 295 296
171 175 175 176 178 178 177 172 173 173 172 170 164 158 155 155 158 158 173 169 176 177 174 171 172 178 187 191 187 174 247 251 279 287 279 313 312 296 295 295 291 288 287
181 183 182 181 183 183 182 175 179 177 174 171 169 162 170 185 184 180 186 170 183 187 192 197 197 200 215 204 208 242 249 272 293 288 283 320 293 290 292 290 289 286 284
188 189 188 187 186 186 183 181 189 190 186 193 190 185 194 196 195 200 168 186 196 200 209 216 219 218 235 239 206 222 263 284 282 279 284 288 287 287 289 290 290 290 287
190 190 195 193 191 190 188 190 190 192 193 199 198 196 198 198 196 204 196 192 206 211 221 211 219 237 248 263 276 273 282 284 281 283 281 266 282 286 288 290 293 293 291
195 195 197 197 196 197 197 196 196 196 197 200 199 200 199 200 205 205 211 213 214 216 224 232 236 244 253 259 267 275 277 276 281 285 288 266 275 284 288 291 293 293 294
201 200 199 199 200 200 201 203 203 204 204 204 202 202 206 207 209 209 213 215 220 221 224 231 240 248 255 261 263 268 274 278 279 277 275 253 266 278 284 289 292 294 296
208 205 201 202 203 203 204 205 207 208 208 210 208 208 209 214 215 214 215 217 221 222 228 234 242 247 254 260 267 269 273 276 274 276 279 273 247 263 276 283 290 295 298
212 209 206 205 206 207 209 209 210 210 210 211 212 214 212 216 218 217 221 221 222 222 226 234 240 243 251 254 263 268 270 272 275 275 275 277 272 245 256 274 286 295 301
215 213 210 206 208 210 211 211 211 212 212 214 214 215 216 218 219 219 224 227 224 221 222 229 233 237 243 251 260 267 267 269 269 269 268 266 269 272 250 252 276 292 298
219 216 213 209 211 211 211 213 214 213 214 215 215 216 216 217 218 219 223 227 223 222 224 223 227 232 245 248 256 267 271 268 268 266 264 264 260 261 268 239 241 283 295
223 220 218 214 213 211 209 212 215 217 218 217 216 217 216 215 214 218 223 224 220 222 224 221 227 229 242 251 261 269 271 267 263 263 262 259 256 256 263 273 259 234 274
224 221 220 218 213 207 204 206 210 215 215 215 218 219 218 216 213 215 218 219 215 221 225 224 226 229 232 231 251 267 264 255 251 253 252 256 255 256 265 275 277 284 286
231 226 225 223 217 210 209 207 210 212 216 217 216 218 220 217 216 215 218 215 212 218 223 221 218 224 225 215 232 258 267 248 213 229 236 250 260 241 251 267 283 294 301
239 235 231 228 223 217 212 207 203 207 212 213 216 217 217 216 215 214 217 217 214 215 219 218 215 222 227 221 224 237 252 257 285 205 218 229 224 212 230 263 304 315 314
248 242 236 232 227 220 211 209 208 209 214 217 215 214 213 213 214 214 216 217 217 216 220 218 216 220 226 229 223 232 245 261 262 263 204 202 222 251 259 280 281 308 307
264 250 243 236 230 223 215 213 214 219 222 220 213 213 213 210 212 213 213 214 216 217 221 220 219 220 222 229 226 224 235 245 247 254 262 254 238 233 256 274 283 298 297
298 281 258 243 235 226 218 216 216 219 219 216 214 212 212 209 208 212 211 213 215 217 220 221 220 221 222 226 228 224 223 227 230 237 252 262 263 261 258 266 280 292 296